Terminal Aerodrome Forecast
Issued by NWS Wilmington, NC

Home | Current Version | Previous Version | Text Only | Print | Product List | Glossary On
Versions: 1 2 3 4 5 6 7 8 9 10 11 12 13 14 15 16 17 18 19 20 21 22 23 24 25 26 27 28 29 30 31 32
000
FTUS42 KILM 030617 AAA
TAFFLO
TAF AMD
KFLO 030617Z 0306/0406 25004KT P6SM BKN010 BKN100
      TEMPO 0308/0311 P6SM TS SCT025 BKN050CB
     FM031200 23010KT P6SM VCTS SCT020 SCT035CB BKN250
      TEMPO 0312/0316 VRB15G22KT P6SM -TSRA BKN025 BKN050CB
     FM032000 25010KT P6SM VCSH SCT030 BKN050=

USA.gov is the U.S. government's official web portal to all federal, state and local government web resources and services.